User: anonymous   Login
Location: Unspecified
(0.0000°N, 0.0000°E)
Time: 00:06:59
(UTC+00:00)
Language:

Safir 2 - Orbit

View from above orbital plane
View from above orbital plane
View from above satellite
View from above satellite

Ground track
Ground track

The orbit data is extracted from the following two-line orbital elements,

1 25399U 98043F   21023.55473608 -.00000003  00000-0  17911-4 0  9995
2 25399  98.7216 328.5840 0002738  64.8039 295.3424 14.24682007170666
Epoch (UTC): 23 January 2021 13:18:49
Eccentricity: 0.0002738
inclination: 98.7216°
perigee height: 807 km
apogee height: 811 km
right ascension of ascending node: 328.5840°
argument of perigee: 64.8039°
revolutions per day: 14.24682007
mean anomaly at epoch: 295.3424°
orbit number at epoch: 17066

The dashed part of the orbit path shows where the satellite is in the earth's shadow,  

DLR